Wind_Speed
12 12 11 10 10 10 10 9 9 9 9 9 10 9 9 9 9 9 9 9 8 7 7 8 9 11 12 13 14 15 17 17 15 13 12 12 12 12 9 10 10 10 11 7 6 6 8 10 12 15 11 7 3 3 6 6 4 3 3 3 4 5 6 6 5 3 1 2 2 5 3 6 8 6 2 5 11 13 16 14 15 16 14 18 24 31 33 33
12 12 11 11 10 10 10 9 9 9 9 9 9 9 9 9 9 9 9 8 7 7 8 8 10 11 12 12 13 15 17 17 15 15 20 17 13 16 12 9 11 12 12 8 7 9 8 7 10 11 6 3 3 4 4 4 3 3 2 3 5 5 8 7 8 7 3 1 4 4 5 5 6 4 3 5 9 11 15 13 16 18 15 18 23 27 29 30
12 12 11 11 11 10 10 9 9 9 9 9 9 9 9 9 8 9 9 7 7 8 8 9 10 11 11 11 12 14 15 14 10 12 19 18 16 20 18 13 12 13 12 10 9 12 12 12 12 9 5 4 4 5 5 3 3 4 3 2 6 8 10 8 9 8 4 4 5 4 5 5 6 4 2 6 8 8 13 13 14 16 15 15 15 19 24 24
12 11 11 11 11 10 10 10 9 9 9 9 9 9 9 9 9 9 8 8 8 8 9 9 10 10 11 11 12 13 12 8 5 7 10 13 16 18 18 15 12 12 11 10 10 12 15 17 14 7 6 4 5 6 5 4 3 3 4 5 7 7 9 7 6 6 4 5 5 6 5 5 6 4 4 6 6 4 8 15 18 19 19 18 14 14 18 18
12 12 11 11 10 10 10 10 9 9 9 9 9 9 9 9 9 8 8 8 8 8 9 9 10 10 10 11 11 11 7 3 1 3 5 10 15 14 14 11 9 9 8 6 8 11 15 16 12 7 5 4 5 5 6 8 6 3 6 10 10 7 8 5 7 10 8 6 6 5 4 2 3 3 5 7 5 2 3 13 21 20 19 18 16 13 13 11
12 12 11 11 10 10 10 10 10 10 10 10 9 9 9 9 9 8 8 8 7 8 9 9 10 9 10 11 10 6 2 1 3 5 10 11 13 12 10 8 8 7 6 6 8 11 12 11 9 6 4 4 6 6 7 9 8 4 6 9 11 11 9 2 5 8 9 8 7 3 1 1 2 2 4 6 6 4 6 12 19 18 18 19 16 13 10 9
12 12 11 11 11 11 11 10 10 10 10 9 9 9 9 9 8 8 8 8 7 8 8 9 9 9 11 10 5 2 1 6 9 6 10 11 11 10 8 7 8 7 7 7 9 9 9 10 8 5 4 5 7 9 9 8 9 7 6 8 9 10 8 2 5 6 7 7 7 5 2 1 3 3 2 6 8 13 19 19 20 18 18 18 13 11 10 9
12 12 12 11 11 11 10 10 10 10 10 9 9 9 9 8 8 8 7 7 7 7 8 8 8 9 11 8 2 1 3 10 12 9 11 11 11 9 8 8 9 9 10 12 11 10 9 10 8 6 5 5 7 8 8 8 7 8 7 6 6 6 3 7 6 4 3 4 5 7 5 4 0 3 3 6 8 15 22 20 19 18 15 14 12 11 10 9
13 12 12 11 10 11 10 10 10 10 10 10 10 9 9 8 7 7 7 7 7 7 8 7 7 8 8 6 2 3 5 9 11 12 12 12 11 9 9 8 11 12 13 15 16 15 10 8 8 7 6 6 9 9 7 7 6 8 7 5 6 4 2 7 6 3 2 2 3 5 4 7 4 3 2 5 8 10 19 21 18 17 15 13 12 11 10 9
13 12 11 11 10 10 10 10 10 10 10 10 10 9 9 8 6 6 6 6 6 7 7 6 6 7 6 4 2 4 4 8 11 11 12 12 11 9 10 9 12 14 13 15 18 18 12 7 7 5 5 5 7 8 8 7 6 6 5 6 5 0 1 4 6 4 4 2 2 1 3 6 6 3 2 2 6 7 14 20 18 16 15 13 12 10 9 9
13 12 12 11 10 10 10 10 10 10 10 10 10 9 9 8 7 6 6 6 6 6 6 6 6 7 7 4 2 4 6 12 11 10 11 11 11 11 12 11 14 18 17 15 17 17 14 12 9 3 2 4 7 8 7 6 5 3 1 4 5 1 2 3 6 1 3 3 5 3 2 4 5 2 5 5 4 7 10 15 17 15 13 13 12 10 7 8
13 12 12 11 10 10 10 11 11 11 11 11 10 10 9 8 7 6 6 6 6 6 5 5 5 5 6 4 5 8 8 9 9 11 12 11 12 13 13 14 15 19 16 11 12 13 12 12 8 4 3 4 7 6 6 8 2 2 2 3 6 3 2 5 6 3 3 4 5 4 1 5 5 6 7 8 6 7 8 11 14 13 12 13 11 8 7 10
12 11 11 11 11 11 12 13 13 13 12 11 11 10 9 8 7 6 6 5 4 5 5 5 4 4 4 2 8 10 7 8 10 14 14 11 11 12 13 13 11 12 12 12 13 16 15 13 8 3 5 5 5 4 4 9 3 3 1 2 4 5 4 5 7 6 6 5 6 7 1 5 7 9 10 9 8 8 7 8 11 12 11 11 10 8 8 11
11 11 11 12 12 13 14 14 14 13 12 11 11 10 9 8 7 6 6 5 4 4 4 4 4 3 1 5 12 10 8 10 11 14 14 11 12 14 15 12 9 10 13 14 14 13 13 12 9 5 5 4 5 5 5 6 2 2 2 2 2 2 5 7 8 9 6 5 8 8 2 6 8 10 12 7 10 11 8 7 8 11 11 11 10 10 10 11
11 11 11 12 12 13 14 14 14 13 11 10 9 8 8 7 6 6 5 5 4 4 4 5 4 1 1 7 14 10 10 10 10 13 12 13 14 12 14 15 12 12 13 14 12 12 13 10 6 3 4 6 5 5 5 4 2 1 0 4 2 3 7 8 7 12 9 5 10 9 2 6 7 9 10 8 13 13 10 7 6 10 13 12 10 11 11 10
11 11 11 11 12 13 14 14 14 14 11 9 9 8 6 5 5 5 5 4 3 3 3 4 5 5 1 5 8 5 8 9 11 14 13 14 15 12 13 15 14 14 14 13 11 11 13 7 2 3 3 4 4 3 3 4 4 1 4 5 4 5 7 7 7 15 13 6 8 9 4 4 5 6 5 6 13 12 9 7 6 10 12 12 10 10 10 9
11 10 10 11 11 13 14 14 13 13 11 9 9 9 6 5 4 4 4 3 3 3 4 6 4 5 4 7 8 4 7 11 14 16 15 14 15 15 13 10 9 11 11 11 12 9 7 3 1 2 2 2 3 2 2 4 5 3 2 4 5 6 6 5 5 11 12 8 7 8 5 5 6 4 4 7 9 9 7 6 7 8 10 10 9 10 11 10
11 10 10 10 11 12 13 14 13 11 9 8 8 9 8 5 3 3 3 1 1 2 6 9 5 1 4 8 8 8 11 12 10 10 12 12 12 14 12 6 4 6 6 6 8 5 2 1 2 1 3 2 3 1 2 5 3 2 2 1 4 6 6 5 4 8 11 11 8 8 7 8 6 4 4 7 9 9 7 7 7 8 10 10 9 10 11 11
10 10 9 10 10 10 12 13 14 12 9 8 7 9 8 4 3 3 2 2 1 0 2 4 5 1 3 6 11 7 6 10 7 5 7 9 10 11 11 9 5 4 3 2 4 4 3 1 1 1 4 3 5 4 5 4 2 1 3 1 3 5 5 5 1 6 10 10 7 7 8 8 6 4 6 6 7 10 9 7 6 7 9 10 9 9 11 12
10 9 9 9 9 9 10 12 14 15 13 10 8 7 6 3 2 1 2 4 5 7 6 4 8 5 6 4 4 5 7 6 5 5 8 9 9 7 6 7 5 3 3 3 4 4 4 3 3 4 6 6 4 3 3 2 2 3 3 3 5 5 5 6 4 2 4 6 5 6 6 7 6 4 5 5 4 6 9 8 6 7 8 9 10 9 11 12
10 9 8 8 8 9 9 10 13 16 16 13 7 3 3 2 2 1 1 5 10 15 14 12 12 11 11 7 5 5 2 4 4 7 11 12 8 5 3 4 4 4 4 5 4 2 3 5 5 8 9 7 5 5 4 4 5 4 3 3 5 5 4 4 2 3 5 4 3 2 1 5 5 5 4 2 4 5 7 9 7 7 8 8 10 10 10 9
11 9 9 8 8 8 9 10 12 15 17 14 5 2 4 4 4 6 5 3 8 13 15 17 16 12 13 12 3 2 4 2 5 7 11 12 8 4 4 5 4 4 5 5 3 1 2 4 8 9 5 3 2 4 7 5 4 4 3 3 3 4 5 4 4 6 7 4 2 5 4 5 6 6 7 4 4 6 7 9 9 9 8 8 9 9 9 8
11 10 9 8 8 9 10 11 12 16 17 12 5 6 6 6 7 11 7 3 6 10 12 13 14 9 10 11 6 5 4 3 6 6 12 10 5 5 4 4 5 6 5 5 5 3 3 5 10 9 4 2 2 3 6 5 3 2 1 2 1 4 4 4 4 4 4 2 1 4 5 5 6 6 7 8 7 6 8 10 10 9 9 9 9 8 9 9
11 10 9 8 9 9 11 13 14 16 17 13 12 13 9 8 7 9 5 2 4 8 8 9 10 6 4 4 5 6 3 4 5 4 12 8 3 5 4 4 5 5 5 7 9 7 6 6 6 5 5 4 1 2 4 4 3 3 2 1 3 4 5 4 2 1 3 2 2 2 5 5 5 6 7 8 8 6 8 11 9 7 7 7 8 8 8 9
10 10 9 8 9 9 11 13 12 13 14 12 12 11 7 8 8 8 3 1 3 4 4 3 5 1 1 6 6 4 3 4 3 5 9 7 4 3 3 4 4 4 6 8 9 8 9 7 7 7 5 4 2 2 1 4 1 4 3 5 6 5 8 7 2 2 4 5 3 1 2 5 5 6 8 7 7 7 7 12 12 8 7 6 6 7 7 7
10 9 8 7 7 9 10 7 8 14 11 6 6 9 8 8 10 7 2 2 2 2 1 1 2 1 0 3 4 1 4 5 4 11 10 6 5 2 1 2 3 4 7 6 3 2 4 5 7 7 5 5 4 2 2 5 3 2 4 6 6 6 9 10 5 2 2 2 4 3 4 5 6 5 8 7 7 9 8 11 12 8 7 8 7 7 7 7
9 8 7 5 6 8 6 5 11 15 6 4 12 12 9 10 11 6 2 3 3 3 0 1 1 1 1 3 4 2 2 5 2 7 7 5 2 2 2 3 4 4 5 2 2 2 1 3 4 4 3 2 4 4 4 5 4 3 4 5 5 4 6 10 7 2 3 2 4 2 5 3 5 6 8 6 6 8 8 9 11 9 9 10 9 8 9 9
8 7 5 3 5 7 6 8 12 10 7 10 12 10 9 11 9 4 4 2 3 3 1 0 2 3 3 4 4 1 3 3 1 1 3 7 4 2 0 6 6 7 8 3 4 5 2 3 3 4 2 3 3 4 5 5 5 5 5 5 4 1 2 3 1 2 0 2 5 5 4 2 4 6 8 6 5 7 9 11 11 11 10 11 11 11 11 11
7 5 3 3 5 7 8 9 9 7 10 12 11 10 10 9 6 3 4 1 3 2 0 0 2 2 3 3 5 4 4 3 3 3 3 7 5 2 2 6 5 8 9 4 5 5 3 4 7 6 4 4 3 4 5 5 5 6 4 1 2 3 3 3 2 2 3 1 5 6 4 3 5 5 6 7 5 7 10 10 10 11 11 10 10 10 11 11
6 4 2 3 4 7 9 9 7 9 12 12 13 13 10 6 3 4 2 1 3 2 1 1 2 4 5 4 5 6 6 4 4 4 3 3 3 3 2 3 2 5 6 4 4 6 5 1 4 4 2 3 3 5 6 6 7 6 4 2 4 4 4 3 1 2 3 3 6 7 5 4 4 5 5 5 5 6 6 7 8 11 10 9 8 7 9 10
5 4 4 4 4 6 7 6 8 11 12 14 16 13 7 3 3 4 0 1 1 2 1 0 0 4 6 6 5 7 7 6 5 7 4 1 2 3 2 2 2 3 5 5 5 5 5 3 1 2 3 2 3 5 5 5 3 5 4 3 3 4 4 3 3 2 1 5 7 8 7 5 4 5 6 5 6 6 1 5 7 9 9 9 8 7 8 9
4 3 4 4 3 4 5 6 10 12 13 16 14 7 3 3 2 2 3 1 1 2 1 1 2 2 3 4 3 3 6 5 4 6 5 4 4 5 4 3 3 0 3 4 4 4 5 5 5 4 6 6 3 3 5 6 2 3 4 4 3 2 3 2 2 1 4 6 6 5 5 4 5 6 7 7 9 8 2 3 6 7 6 7 8 8 7 8
2 2 3 2 3 4 5 8 10 11 14 15 9 2 2 2 1 4 4 1 1 4 1 1 3 3 3 4 5 6 6 3 2 3 4 5 5 5 7 8 7 5 4 4 4 2 3 6 6 3 4 7 6 3 2 4 2 4 4 4 3 2 1 2 3 3 3 3 4 4 2 3 4 5 6 7 8 7 4 4 6 7 8 8 8 8 6 8
3 4 4 4 5 4 4 7 8 10 14 12 4 1 3 1 4 5 4 3 2 3 4 6 7 4 3 3 5 7 5 3 3 3 3 2 1 1 4 7 7 5 3 2 3 2 1 5 5 3 1 6 7 6 6 4 4 4 5 5 5 4 3 4 3 3 3 3 4 4 2 2 3 5 7 7 7 6 5 4 4 6 6 7 7 7 7 8
4 7 8 8 9 5 4 7 9 9 10 7 3 2 1 2 4 2 3 3 5 7 8 10 10 6 5 5 7 7 3 1 1 2 1 2 1 2 2 4 7 5 2 1 2 1 1 4 4 4 4 8 9 8 7 4 3 3 2 4 5 5 5 4 3 4 2 1 3 1 2 4 4 7 11 9 8 8 8 5 0 3 4 4 6 6 6 6
8 9 11 12 10 4 5 7 8 7 6 5 4 1 2 4 4 3 2 3 5 7 8 8 6 4 4 4 5 6 3 1 2 4 2 3 2 5 5 4 6 7 5 3 1 1 0 5 6 5 5 5 7 7 8 5 2 3 3 3 5 6 6 3 2 0 3 1 3 2 3 6 4 6 9 7 7 8 9 8 4 2 3 1 5 6 6 4
11 10 11 12 5 2 6 6 7 7 5 2 1 2 3 3 4 2 3 4 5 6 6 5 3 3 4 3 4 5 4 3 1 2 1 2 2 4 3 2 2 2 4 5 1 0 1 4 7 8 8 9 7 3 3 5 5 2 3 5 5 2 2 2 1 1 1 2 3 2 4 5 3 4 6 6 7 9 8 7 6 4 4 2 3 4 6 6
11 9 10 8 4 4 6 7 7 5 2 0 2 4 4 3 3 2 6 5 5 6 4 3 2 2 3 4 5 7 6 4 3 1 2 1 2 5 4 3 4 4 6 8 2 1 3 1 5 6 8 11 8 5 3 3 4 5 4 4 2 0 1 1 1 1 2 2 3 3 5 4 3 4 6 6 6 7 8 6 6 6 8 3 6 3 2 2
7 5 4 2 3 7 7 6 6 3 1 2 3 4 3 2 2 6 6 3 3 4 3 4 3 3 4 5 5 7 7 5 4 3 2 1 2 4 1 0 2 4 6 7 3 0 2 1 4 4 7 9 8 4 3 5 5 3 3 4 1 3 3 2 1 2 3 3 4 4 3 3 4 4 3 5 5 6 7 7 7 9 10 7 5 7 7 7
3 2 1 1 3 7 5 3 3 1 1 3 4 3 3 3 6 8 5 2 2 1 2 3 4 3 4 6 6 6 6 6 6 3 1 2 3 3 1 2 2 4 5 6 4 2 3 2 3 4 7 7 4 3 3 4 5 4 5 5 3 1 1 1 0 1 2 1 2 2 3 5 5 2 3 4 5 4 5 6 7 8 9 9 8 8 7 8
3 2 2 2 3 4 3 2 1 1 2 4 4 3 3 2 4 8 7 3 1 3 3 3 4 3 2 4 4 4 4 4 5 4 3 3 2 2 4 4 3 5 6 5 4 3 2 1 1 3 4 3 5 7 9 10 8 5 4 4 4 2 1 1 3 1 3 2 3 2 4 7 5 2 4 5 4 4 6 7 7 7 9 9 7 7 7 7
2 2 3 1 5 4 3 2 2 2 2 3 4 4 2 1 4 5 5 5 3 3 2 2 3 2 2 3 3 4 4 3 4 4 3 5 4 1 1 5 6 5 4 4 3 1 1 2 1 4 3 5 8 10 12 15 14 9 5 4 4 2 3 4 3 2 1 2 3 3 2 7 4 3 1 4 4 5 7 8 9 8 7 8 8 8 8 8
1 5 5 1 7 7 3 2 4 3 2 4 6 6 5 5 6 5 4 5 4 3 2 3 4 3 3 4 4 5 5 2 3 4 4 6 5 0 3 5 4 3 3 3 2 1 1 2 1 3 3 4 7 8 10 11 10 7 4 3 3 1 3 5 5 3 3 3 3 3 2 7 4 2 3 5 6 6 7 9 10 8 7 8 8 8 8 9
3 4 4 2 12 12 4 1 4 4 4 5 6 7 8 6 6 7 6 4 2 4 3 3 4 3 3 4 4 5 5 2 2 3 4 4 3 1 1 4 4 3 3 3 2 1 1 0 1 2 4 5 5 4 5 5 4 2 3 5 5 3 2 1 1 2 1 4 5 4 3 7 5 3 5 6 7 7 7 8 9 8 8 8 8 8 8 8
4 3 2 6 14 12 2 1 3 2 4 6 6 7 7 5 5 8 9 4 1 3 2 2 5 4 3 5 5 5 5 4 2 2 3 4 4 5 4 1 5 3 3 7 7 4 2 2 2 1 4 5 3 2 1 4 4 3 4 6 8 7 5 2 1 1 1 4 3 4 4 7 6 5 5 5 7 8 8 9 8 7 7 8 9 9 9 7
3 2 3 6 8 6 1 4 5 2 4 6 5 5 5 5 6 7 7 3 2 2 1 1 5 5 4 5 5 5 5 5 5 4 4 5 4 4 7 7 2 5 8 9 8 5 2 2 3 5 6 6 5 5 4 6 6 7 9 10 9 8 5 2 2 1 3 3 3 4 5 6 10 8 4 3 6 7 8 8 8 7 8 9 10 12 12 10
2 1 3 4 4 4 4 6 5 4 5 5 3 4 5 6 6 4 3 2 2 4 2 1 2 3 4 5 4 3 4 5 6 5 5 6 5 5 9 12 7 6 9 7 5 5 3 2 5 7 9 9 8 9 8 7 8 10 11 13 12 8 4 4 2 5 4 2 5 6 3 3 9 11 7 2 4 5 5 5 5 5 6 8 9 12 14 13
3 1 3 4 3 3 5 6 7 7 7 6 3 4 6 7 6 4 3 3 4 4 2 0 1 2 4 6 6 4 3 4 5 4 4 5 6 7 8 9 7 2 1 1 2 4 3 3 6 7 8 10 8 8 8 8 9 10 11 13 12 7 4 3 6 8 5 3 7 8 5 5 9 12 9 3 2 2 4 4 5 5 6 7 8 9 10 10
4 2 3 5 2 4 5 7 10 9 7 5 4 4 5 6 5 6 6 4 2 4 5 3 3 4 5 7 7 3 2 1 2 3 4 5 5 5 5 6 5 5 5 4 1 1 1 3 4 4 7 8 7 7 9 8 8 10 13 13 9 6 6 7 8 7 5 6 8 8 7 8 8 7 7 5 1 2 3 4 6 6 5 4 5 6 7 7
4 3 3 4 3 5 6 6 7 6 5 5 4 4 5 6 5 5 5 4 4 5 6 6 7 8 7 8 7 4 2 4 4 2 4 5 5 4 2 3 4 6 7 5 3 1 1 1 3 2 5 6 4 6 9 8 8 12 14 11 7 7 9 9 8 7 6 7 7 6 8 9 6 2 5 7 5 2 2 5 5 4 4 4 5 6 7 8
8 8 7 4 3 4 4 5 5 5 5 4 4 4 4 4 5 5 5 6 5 4 6 7 8 8 7 7 8 5 1 3 4 2 3 1 2 3 3 4 5 7 6 5 4 3 2 2 4 3 5 4 2 5 9 7 8 13 13 8 5 7 8 6 6 6 5 6 7 7 7 9 8 5 6 7 6 5 4 4 4 4 5 6 7 7 8 8
14 11 10 5 3 4 4 5 5 5 4 4 5 5 3 4 9 9 5 4 5 6 7 8 7 6 5 6 7 6 6 5 3 4 4 3 3 4 5 8 9 8 5 4 4 3 2 3 3 2 5 3 1 3 6 5 7 10 8 5 5 7 7 6 6 6 6 6 5 6 7 7 7 6 5 6 7 6 4 3 3 4 5 6 6 7 8 9
Wind_Direction
327 325 323 324 321 321 320 318 318 317 319 315 314 314 313 313 309 307 307 303 298 294 296 297 299 305 309 312 321 329 330 321 312 302 262 239 243 256 271 254 237 221 226 260 272 246 262 266 246 239 248 257 237 231 264 266 253 241 189 214 249 255 257 254 272 293 14 316 128 138 113 98 118 103 63 84 89 95 91 82 73 70 88 104 115 123 127 131
326 326 324 325 324 323 322 318 316 316 317 316 314 312 311 312 309 307 304 300 296 300 302 299 303 308 310 317 328 334 333 323 310 287 254 234 245 256 244 222 219 217 223 245 248 234 240 250 235 224 224 237 224 213 225 240 233 226 194 197 226 242 252 263 287 291 60 345 278 152 116 84 124 118 29 86 101 102 99 97 93 90 93 102 115 123 128 136
328 328 326 324 323 321 320 316 313 313 314 315 313 310 309 308 308 308 306 302 299 304 303 302 307 308 313 322 331 339 335 322 304 272 250 228 234 246 233 220 214 216 229 239 241 242 244 256 250 218 200 231 233 223 214 214 224 223 210 217 237 240 256 277 285 278 75 49 329 41 82 86 120 114 50 110 123 128 122 124 118 117 123 120 123 127 134 142
331 328 326 324 322 319 319 318 315 314 314 313 311 310 309 305 303 305 305 304 303 304 301 304 309 307 317 325 333 344 336 315 281 262 253 219 219 229 224 223 221 219 227 232 239 252 262 275 274 237 201 223 229 234 226 203 209 208 192 227 250 256 268 291 321 323 32 50 26 30 36 90 132 120 117 121 121 158 153 146 142 143 142 135 134 135 141 150
331 329 328 325 323 321 319 318 315 313 311 308 307 306 306 305 303 303 301 299 298 299 301 305 307 309 321 328 333 343 343 330 260 214 202 196 201 205 208 210 205 204 203 212 237 256 267 271 273 255 212 225 236 235 230 208 203 215 209 225 248 267 274 298 12 5 4 19 45 43 17 91 149 103 118 126 128 219 210 160 148 144 140 134 138 140 145 151
332 333 331 327 324 321 317 315 313 311 310 307 306 304 304 301 298 301 299 298 299 299 303 303 306 316 326 328 328 329 351 307 274 173 164 177 183 183 185 184 181 186 186 208 243 256 264 258 254 255 213 221 244 243 240 212 190 214 230 225 235 242 248 276 39 13 2 359 12 9 320 90 114 65 67 94 113 72 62 127 130 123 125 129 135 137 145 147
335 334 332 329 325 320 318 315 313 311 309 306 303 301 301 297 295 299 298 299 301 299 303 303 311 326 330 332 326 298 198 269 275 204 171 174 172 173 175 183 191 193 195 216 245 247 253 252 238 238 224 216 237 244 247 223 185 199 239 231 234 242 233 125 80 43 13 339 345 360 345 4 134 138 79 85 101 87 81 98 110 114 123 127 132 137 147 145
336 334 332 330 326 322 319 315 312 309 307 304 301 299 298 299 298 297 294 294 295 298 301 305 322 334 336 342 335 250 227 258 258 205 175 173 168 176 188 196 202 199 206 220 233 236 245 249 231 226 231 223 241 246 243 233 198 207 239 238 244 259 200 103 85 60 20 310 355 28 2 328 228 139 143 123 110 103 104 108 113 121 126 128 137 142 147 142
339 336 333 330 327 323 318 315 312 308 307 305 302 301 298 297 297 293 289 290 293 297 297 306 327 335 338 336 304 289 265 241 220 186 171 177 175 185 199 199 202 199 210 226 231 238 246 240 229 228 228 233 250 256 255 243 214 217 228 243 259 266 145 114 115 119 94 310 25 44 334 312 326 22 61 120 115 115 119 123 128 133 136 139 144 150 152 145
341 338 335 331 328 326 322 320 316 312 310 306 304 301 299 300 297 291 288 291 293 292 299 315 328 336 334 305 267 291 250 174 167 171 168 175 177 189 203 199 205 204 213 231 232 237 242 243 251 252 241 255 267 266 266 243 207 216 219 247 266 191 135 127 119 125 128 228 274 133 241 282 307 339 319 147 127 131 127 129 138 138 141 147 146 154 152 141
341 339 337 334 331 329 326 323 319 317 314 308 306 301 297 298 294 293 290 291 294 292 302 313 325 343 331 295 270 270 200 153 144 159 162 171 184 200 213 209 210 210 217 233 236 239 244 257 280 320 272 304 318 294 286 261 205 206 242 270 278 133 178 118 100 125 150 210 238 174 226 282 302 264 226 227 159 148 142 132 138 141 142 147 147 150 142 133
341 340 339 336 333 332 330 326 323 319 313 308 305 300 297 294 290 286 281 283 291 293 301 312 336 356 336 298 245 244 212 175 158 159 166 184 200 211 228 232 223 218 229 256 272 280 288 289 303 349 294 307 321 300 305 307 272 111 23 310 306 322 237 156 133 200 182 197 200 141 307 291 281 258 220 206 178 152 151 137 140 145 143 144 146 144 134 137
342 342 341 339 337 335 332 328 326 321 315 309 302 299 295 290 287 278 273 273 277 289 299 311 331 350 343 286 242 243 237 227 192 170 176 193 212 223 237 246 243 239 257 281 292 305 315 320 334 333 292 304 302 274 289 309 334 86 349 280 301 325 284 198 169 183 183 190 167 129 189 265 260 255 242 211 172 145 147 151 146 143 145 148 147 144 140 143
343 344 344 341 338 336 333 332 331 327 320 312 303 299 294 287 282 275 274 267 268 284 286 305 325 16 33 258 272 266 239 238 210 184 187 196 212 227 235 239 248 254 263 269 275 295 304 310 323 310 287 280 269 280 299 308 345 85 321 296 238 274 273 232 187 175 193 191 141 120 167 249 258 253 256 224 153 142 154 171 155 143 150 153 149 150 148 150
346 345 342 340 338 336 338 339 341 340 336 327 320 312 298 286 275 268 270 268 281 286 287 304 271 207 324 277 290 273 218 229 222 202 206 212 214 227 234 225 228 243 254 265 273 292 293 288 296 284 271 271 262 276 302 312 306 131 200 294 252 202 253 252 196 175 192 186 135 125 185 250 261 269 267 210 153 143 157 183 172 145 151 157 156 155 151 156
346 341 339 339 337 337 339 344 349 352 353 353 349 339 315 289 273 260 262 259 282 281 286 309 227 200 322 284 294 275 201 225 229 213 215 222 221 229 234 220 221 233 238 254 260 268 279 273 253 255 265 294 293 265 293 326 311 242 168 239 247 202 242 261 204 182 180 165 141 143 180 239 250 294 324 155 149 140 150 186 181 147 154 160 156 156 155 158
343 338 336 335 335 336 338 341 350 359 2 3 3 359 343 308 275 252 261 253 271 266 250 280 241 189 254 276 302 302 202 219 225 214 209 217 231 240 243 222 213 227 224 237 241 236 258 254 175 268 267 276 293 285 294 294 287 291 202 230 252 226 240 266 206 183 159 147 174 175 190 235 244 283 23 95 125 130 151 190 185 152 156 165 157 157 161 161
341 335 330 330 331 334 335 334 341 355 4 360 2 5 355 329 290 261 269 239 280 290 269 282 280 186 262 262 260 236 201 198 206 208 201 206 236 256 270 261 212 222 222 235 239 214 225 245 154 282 313 264 260 211 201 234 231 296 319 242 274 261 251 256 202 178 157 158 183 180 202 244 251 233 175 147 136 146 181 195 184 163 155 165 162 156 162 167
338 334 326 323 324 329 332 329 329 336 349 348 344 343 334 317 298 273 234 194 140 138 270 240 201 180 308 234 225 219 156 155 167 193 205 205 225 251 280 283 259 227 215 213 235 209 179 270 181 259 291 259 243 222 212 228 161 54 342 28 294 297 292 294 197 172 168 166 182 168 188 239 254 220 200 199 165 161 187 194 178 169 158 162 165 159 164 172
335 332 322 314 313 321 327 325 320 322 329 333 340 339 322 325 347 300 202 207 219 238 265 234 197 231 303 255 177 114 108 147 186 206 215 211 202 215 260 274 275 265 232 202 227 218 161 182 231 220 235 226 205 200 211 303 50 66 22 7 329 331 329 336 31 97 128 140 198 185 181 233 254 243 229 240 223 172 178 193 192 173 165 165 167 166 166 176
331 327 320 309 303 307 315 319 311 312 320 323 338 346 305 4 48 307 262 220 228 235 252 256 228 224 255 259 122 126 189 184 206 217 206 201 190 188 208 220 254 275 253 237 255 290 150 181 229 229 227 207 160 125 96 32 12 31 55 26 342 328 306 316 31 26 41 95 211 218 180 251 269 283 283 238 205 209 191 192 204 187 177 173 170 171 171 176
328 322 318 308 295 292 296 302 301 306 311 311 317 228 268 348 1 329 333 261 250 243 240 249 245 230 245 257 163 161 283 204 212 229 191 180 176 174 184 183 205 238 243 245 263 319 208 220 244 239 219 190 170 101 87 61 19 7 39 53 342 302 305 329 10 21 31 50 317 356 2 291 289 295 298 290 208 222 217 199 202 197 183 177 176 177 179 179
326 318 318 306 291 286 283 287 292 296 294 289 266 239 288 359 3 347 344 286 283 267 243 235 239 233 240 254 215 197 267 236 231 216 174 175 178 178 201 202 205 224 229 224 207 180 209 236 240 229 169 149 261 73 76 53 23 348 20 71 286 289 309 326 345 21 64 95 278 343 347 297 296 304 291 276 243 225 223 213 211 201 185 180 179 173 178 184
325 319 316 304 295 285 284 290 287 285 281 276 270 273 314 17 15 4 1 256 276 268 251 216 216 231 221 208 186 199 229 242 253 184 164 179 190 172 208 239 228 231 222 214 208 200 222 222 195 173 139 138 273 2 60 57 8 317 305 234 236 271 289 282 281 3 50 23 268 319 348 313 281 278 272 267 254 239 219 212 217 213 195 180 169 163 170 179
327 321 311 304 298 292 300 298 286 289 285 273 276 290 347 15 360 6 17 283 276 267 292 221 198 235 112 116 138 202 241 234 228 132 154 189 222 192 206 238 230 232 247 241 219 213 232 213 145 138 154 152 176 303 63 114 28 312 288 245 233 249 278 277 265 38 27 347 286 178 351 299 274 255 257 264 257 248 213 198 208 214 204 187 176 177 172 175
329 324 314 304 296 303 312 300 304 315 294 268 336 4 14 350 347 1 39 27 320 267 12 107 161 117 159 144 165 229 302 266 161 140 160 196 236 250 107 270 274 238 255 267 248 234 225 185 142 143 154 154 167 225 202 140 127 291 258 240 236 240 263 267 263 67 88 267 267 172 171 269 297 279 260 254 246 241 211 188 196 203 204 200 198 198 189 185
331 328 320 301 299 312 309 300 325 331 329 9 5 5 358 340 343 355 53 47 329 275 112 96 140 175 197 178 184 130 275 271 124 143 163 159 199 22 75 271 295 260 266 334 333 297 173 135 100 105 108 159 179 206 208 162 157 248 254 249 251 240 251 257 245 162 172 249 304 224 175 231 287 278 268 253 238 244 227 201 194 193 200 203 204 202 201 199
336 335 325 299 303 304 292 303 322 335 3 7 355 348 344 337 336 360 72 63 276 268 257 253 145 172 180 180 201 225 232 230 61 247 152 132 158 71 141 258 282 286 289 292 255 256 179 145 133 134 176 229 198 218 215 175 184 225 231 242 262 299 335 297 245 130 197 313 312 274 204 223 272 272 285 279 250 243 231 218 205 197 197 197 202 206 206 202
342 344 335 300 302 313 318 309 307 327 348 351 342 328 325 324 331 41 75 60 249 250 172 129 105 177 216 195 198 228 245 200 165 224 138 134 178 155 184 246 275 293 291 267 247 251 208 174 167 163 187 209 217 247 232 200 210 212 199 237 360 9 343 359 48 35 17 339 268 261 212 219 275 274 283 286 270 249 230 215 203 202 203 192 193 201 201 199
344 347 331 303 308 335 333 307 310 337 341 341 333 327 327 328 15 67 50 281 237 260 175 130 125 182 200 210 210 211 222 211 177 183 148 141 187 165 191 248 267 300 310 322 299 269 258 206 150 159 169 186 226 254 249 232 209 175 136 57 28 351 318 330 17 53 19 302 258 251 228 218 267 277 255 248 261 262 226 192 191 197 198 191 190 193 187 188
346 339 322 314 311 330 319 297 335 348 337 338 337 336 344 350 76 97 273 211 184 285 307 322 215 184 192 211 216 197 204 218 184 166 165 133 156 174 212 288 270 317 337 331 311 286 288 315 152 171 152 163 260 272 278 267 202 127 102 73 42 344 331 337 344 74 183 263 253 247 251 237 247 267 258 254 278 293 226 162 188 191 188 191 192 192 181 173
354 338 329 329 308 307 304 304 331 341 338 343 342 340 15 22 49 172 220 87 73 272 293 312 279 277 282 292 294 245 224 228 180 160 176 174 182 192 189 195 183 60 320 289 282 292 286 259 232 199 172 176 212 264 301 306 301 104 89 76 68 324 332 324 278 199 208 248 255 251 259 252 247 249 257 271 277 285 305 148 158 162 185 204 201 196 183 166
345 326 328 318 283 284 294 308 320 328 336 344 343 345 61 48 320 247 256 356 229 240 245 307 262 255 296 331 322 293 277 257 151 158 205 187 178 190 196 199 180 168 219 234 238 265 295 272 250 223 181 177 176 182 246 283 244 159 139 122 144 182 275 267 246 232 229 256 285 307 315 281 275 261 263 275 267 261 265 216 175 170 184 195 204 196 173 163
318 310 306 269 258 273 300 316 313 310 323 338 350 21 46 40 255 267 303 353 340 317 2 352 334 324 307 298 262 262 276 255 171 168 229 215 135 226 218 217 207 191 187 207 223 205 311 291 251 239 189 165 179 189 187 213 227 197 176 158 160 165 192 225 220 220 243 271 294 326 345 242 240 269 287 300 294 292 292 256 209 213 201 168 181 181 161 169
321 319 314 287 265 269 323 323 314 310 317 339 20 37 57 232 258 305 345 351 358 354 354 343 333 323 307 292 266 265 269 227 144 85 262 241 202 235 233 236 241 231 130 90 250 203 321 278 246 240 207 174 188 198 188 219 273 260 212 165 178 188 193 211 205 188 175 335 301 283 258 239 227 277 294 305 307 311 313 313 138 227 244 129 140 158 156 173
319 326 317 297 272 272 335 317 313 329 332 357 33 12 220 241 297 17 31 343 360 355 341 330 319 301 296 295 290 307 344 333 27 51 340 301 262 239 229 230 235 215 171 148 238 54 253 271 298 308 268 223 216 199 176 177 215 274 277 224 217 198 172 193 266 226 93 338 280 199 254 293 316 296 293 299 297 291 292 306 334 314 283 178 143 138 137 141
320 325 304 293 289 352 342 312 307 331 341 18 52 261 250 279 310 352 61 25 8 354 339 333 329 314 312 318 318 335 355 334 16 93 264 285 293 281 271 317 329 210 148 112 142 261 143 257 305 330 312 301 299 265 188 171 173 208 249 245 257 260 118 123 217 357 60 249 262 180 219 278 315 292 298 315 305 292 290 306 329 358 15 305 242 156 145 144
329 325 297 294 352 1 322 303 307 330 1 20 243 253 258 266 292 17 61 40 9 360 346 313 297 309 322 329 323 335 346 337 350 360 284 263 318 330 344 358 7 34 73 81 79 304 80 296 301 329 316 312 328 335 305 258 220 218 241 258 263 35 16 34 162 172 160 217 278 256 227 241 222 241 291 312 316 323 335 349 348 9 43 18 296 315 69 69
330 318 297 297 351 322 303 299 314 345 23 294 257 248 263 276 357 43 62 56 20 11 331 297 313 334 334 336 329 332 338 332 337 346 353 9 291 296 337 296 336 26 71 87 100 293 65 359 287 324 329 325 339 345 311 305 292 273 301 316 307 154 167 162 172 192 176 210 268 284 267 252 227 222 278 311 331 354 4 18 15 15 37 43 1 0 14 18
317 306 256 198 315 313 306 304 326 16 264 248 233 262 318 355 6 12 18 45 81 105 261 298 319 318 322 336 336 328 329 327 327 327 300 294 272 276 14 52 332 358 50 75 72 34 22 342 266 314 340 335 322 298 286 315 333 342 340 327 313 292 126 84 314 181 120 165 240 295 288 264 248 263 357 347 341 6 31 38 35 33 38 44 40 25 19 27
303 322 225 228 341 344 1 360 301 207 238 244 244 291 2 18 339 344 344 349 156 195 210 245 283 296 308 321 321 308 311 317 314 309 291 301 330 330 350 27 26 11 28 45 44 31 23 44 243 288 331 307 277 296 314 321 326 326 310 292 280 261 181 352 292 265 102 139 187 183 267 266 248 264 331 337 343 22 38 37 39 44 38 37 42 37 32 33
266 336 249 284 12 355 8 358 274 224 237 293 309 320 1 344 318 340 341 325 302 262 242 243 286 324 315 302 311 309 311 308 303 313 308 320 348 336 345 39 47 40 43 62 70 63 139 106 257 267 254 254 272 288 298 299 298 295 286 276 278 256 137 134 227 241 123 192 195 146 246 272 249 177 26 350 360 20 30 35 35 33 32 29 23 20 21 17
302 318 275 310 16 2 7 336 321 333 326 335 339 335 350 356 335 332 321 301 308 337 1 349 350 359 334 328 329 314 316 310 304 315 310 323 341 121 120 68 58 56 60 65 52 335 322 83 359 287 281 278 285 283 273 276 285 292 298 312 307 267 147 155 191 184 149 203 196 139 229 274 286 69 46 1 2 20 31 35 29 17 12 12 7 5 4 1
311 291 253 345 9 11 36 276 331 335 316 340 359 348 350 349 322 312 307 293 333 10 4 328 328 325 303 312 307 301 313 310 301 318 309 313 324 281 87 92 111 102 106 159 182 249 262 97 55 324 318 321 326 314 295 309 333 321 298 317 329 347 45 72 159 121 156 218 192 162 227 256 276 360 12 358 5 20 24 23 21 13 2 354 352 353 350 350
310 280 268 346 358 10 60 246 326 306 320 359 5 343 338 324 308 315 314 310 360 358 338 306 317 319 313 323 317 307 312 307 292 302 302 300 288 285 303 139 148 135 150 160 144 124 167 164 116 195 260 275 265 222 298 345 342 321 305 311 314 318 325 348 59 70 268 253 212 186 231 264 290 334 2 1 3 7 5 5 6 4 355 347 342 338 335 334
335 320 321 335 348 8 354 325 1 22 360 11 353 319 315 299 305 322 326 350 36 328 308 321 328 334 336 330 317 304 312 318 315 313 306 298 281 295 328 341 16 130 143 143 126 102 119 174 165 186 218 236 235 243 303 336 317 300 306 305 295 294 313 24 57 217 225 266 273 226 221 283 299 300 311 7 17 3 351 348 349 350 349 345 335 324 319 313
351 337 355 339 319 349 353 343 12 20 344 347 326 297 301 297 301 321 342 6 325 298 270 188 329 330 323 319 314 299 296 294 292 297 304 300 306 331 340 345 7 119 144 142 127 113 114 193 209 210 229 245 249 263 286 299 286 283 290 288 280 285 337 19 310 249 238 294 288 254 215 274 286 282 284 356 30 344 315 311 318 326 328 323 311 300 299 297
13 312 13 16 308 322 350 331 329 329 320 319 309 291 297 302 303 305 305 299 301 310 323 331 252 277 300 305 293 277 283 291 291 309 327 329 341 350 341 341 2 43 256 336 112 130 139 209 215 214 238 247 247 262 271 262 264 269 268 270 277 297 332 307 260 255 250 243 252 253 237 229 260 280 294 327 35 283 263 261 279 286 286 293 294 291 293 296
16 327 350 30 355 298 309 306 302 296 289 287 283 273 280 291 293 287 283 282 329 1 7 357 301 302 323 317 307 318 30 360 300 321 352 355 350 352 333 321 338 343 326 324 307 168 144 209 220 225 258 264 257 267 273 269 275 275 267 269 283 308 301 277 268 270 262 245 248 268 281 260 251 277 304 312 277 227 250 273 279 280 286 306 315 311 315 316
8 330 333 360 330 299 293 299 303 293 281 274 266 267 268 269 277 289 309 339 9 3 358 347 331 337 342 327 329 2 96 159 178 251 342 356 347 342 324 299 318 330 329 324 308 333 85 255 273 270 276 276 261 263 270 272 277 275 274 282 303 300 285 276 274 279 278 272 275 302 313 291 265 270 302 294 289 294 314 307 297 289 307 340 347 329 330 329
354 335 342 328 296 313 305 299 312 305 296 282 262 277 290 304 331 349 358 357 353 337 337 345 348 351 346 326 326 342 15 153 161 220 270 276 304 313 306 302 313 316 317 321 318 338 24 307 317 327 284 266 195 258 275 286 288 280 279 288 287 271 266 255 248 245 240 257 282 307 304 282 276 284 287 292 313 342 357 358 349 339 344 357 356 336 325 319
358 342 352 350 276 306 313 297 300 290 292 325 321 312 324 2 2 4 4 345 343 345 354 7 5 357 354 336 323 330 341 334 304 271 251 225 244 277 283 288 293 289 285 300 306 321 352 327 331 324 286 283 125 265 297 339 319 285 266 233 223 239 253 259 259 251 234 227 247 265 255 257 286 313 325 331 341 349 2 35 27 350 345 346 332 315 307 303
Height
796 795 794 793 792 791 790 789 789 788 787 787 786 786 785 785 785 785 785 784 784 784 784 784 784 784 783 782 782 781 780 778 776 776 774 768 767 768 768 768 769 770 771 772 772 773 772 772 771 770 772 771 771 770 768 765 763 768 775 785 789 786 778 767 763 758 755 753 746 740 738 744 749 745 741 741 745 752 759 761 760 761 764 768 772 775 778 781
795 794 793 792 791 790 790 789 788 788 787 786 786 785 785 785 784 784 784 784 784 784 784 784 784 783 783 782 782 781 779 777 776 773 768 764 766 768 767 768 768 769 770 771 771 772 772 771 769 769 771 773 771 769 769 765 763 770 775 782 784 777 766 758 758 752 749 753 748 741 739 742 746 745 743 749 756 756 764 769 767 771 774 774 775 777 780 782
794 793 792 791 790 790 789 788 787 787 786 786 785 785 784 784 784 784 784 783 783 783 783 783 783 783 782 782 782 781 779 777 775 768 761 762 765 766 767 768 768 769 770 770 771 771 771 769 767 769 771 773 771 769 770 767 765 768 772 781 777 765 759 755 754 749 745 747 748 745 741 742 745 744 745 753 758 758 767 772 771 776 778 778 778 778 781 783
794 793 791 790 790 789 788 787 787 786 786 785 785 784 784 783 783 783 783 783 783 783 783 783 783 782 782 782 782 781 779 778 773 762 758 761 763 764 766 767 767 768 769 769 770 770 769 768 767 767 771 774 770 768 770 768 766 766 770 777 768 760 761 756 752 748 743 742 745 747 745 747 746 744 747 752 761 764 764 763 764 770 773 775 778 779 781 783
793 792 791 790 789 788 787 787 786 786 785 784 784 783 783 783 782 782 782 783 783 783 782 782 782 782 782 782 782 781 780 779 768 758 758 760 761 764 765 765 767 767 768 769 770 769 769 767 766 767 770 773 771 769 769 763 761 765 766 765 760 760 763 756 749 748 745 743 745 748 749 750 745 746 749 751 763 766 758 755 756 761 766 771 775 779 782 783
792 791 790 789 788 788 786 786 785 784 784 783 783 783 782 782 782 782 782 782 782 782 782 782 782 782 782 781 781 781 782 777 763 758 760 759 761 762 763 765 765 766 767 768 768 769 769 766 767 769 769 770 771 769 766 757 757 766 765 759 757 756 758 754 747 747 747 747 751 751 749 747 749 752 750 752 762 759 750 750 755 761 766 770 774 778 781 783
792 790 790 788 787 787 785 785 784 783 783 782 782 782 782 781 781 782 782 782 782 782 782 782 782 782 781 781 781 781 783 773 760 760 760 759 762 761 763 764 764 767 767 767 768 768 768 767 767 768 768 770 768 765 761 755 755 763 764 757 754 752 753 751 747 747 748 750 752 750 748 749 754 756 751 755 759 755 751 753 759 765 768 772 775 778 781 783
791 790 789 788 787 786 785 784 783 783 782 781 781 781 781 780 780 781 781 782 782 782 782 782 782 782 781 781 780 781 781 768 757 760 760 760 762 761 763 763 764 766 765 766 766 766 766 767 765 764 768 768 763 761 757 756 756 759 760 755 751 750 750 748 747 748 749 750 750 751 754 754 753 753 753 757 757 754 755 758 763 768 770 774 777 779 781 783
791 789 788 788 786 785 784 783 782 782 781 780 780 780 780 779 780 780 780 781 781 782 781 781 782 782 782 781 781 782 772 758 756 759 759 760 761 762 763 762 764 764 764 765 763 764 766 764 761 759 764 763 759 758 755 760 761 754 752 751 749 750 748 748 749 750 751 750 751 755 759 756 751 753 757 757 756 755 755 759 764 768 772 775 777 779 780 783
790 789 788 787 785 785 783 783 782 781 780 780 779 779 779 779 779 779 780 780 781 781 781 782 782 781 782 780 783 783 764 753 757 758 758 760 761 761 761 761 762 763 763 762 760 762 761 759 756 753 757 759 757 755 753 757 755 747 748 749 749 750 747 748 750 750 752 752 753 759 762 758 751 757 763 757 754 756 757 761 763 766 771 773 776 778 779 782
790 788 787 786 785 784 783 782 781 780 780 779 779 778 778 778 778 779 779 780 780 781 781 781 781 781 782 780 785 779 760 755 758 757 759 760 760 761 760 760 761 761 761 759 758 757 755 754 751 752 758 759 757 754 750 748 745 744 747 750 750 750 748 749 751 752 754 756 754 757 761 759 756 761 764 755 752 755 757 762 764 766 770 772 775 777 779 782
789 788 787 785 785 783 783 782 780 780 779 778 778 777 777 778 778 778 779 779 780 780 781 781 782 781 781 781 780 769 756 757 757 757 760 759 760 760 759 760 759 759 759 757 755 754 754 751 750 756 759 757 759 758 751 743 743 744 748 756 756 752 753 751 752 753 755 758 752 755 767 768 764 763 759 751 751 755 757 761 765 767 769 771 774 777 779 781
789 787 786 785 784 783 782 781 780 780 778 778 777 777 777 777 777 778 778 779 780 780 781 781 781 781 783 779 768 758 755 757 756 756 758 759 760 759 758 759 758 758 758 756 755 753 754 751 751 756 755 757 761 757 750 744 745 748 750 758 761 762 762 752 750 753 755 756 750 758 780 779 767 760 754 750 751 756 759 760 763 767 769 771 773 776 779 781
788 787 786 785 784 784 782 781 780 779 778 777 776 776 776 776 777 777 778 779 779 780 780 781 781 781 783 774 759 755 756 756 757 756 757 758 758 758 758 758 758 758 757 756 755 753 753 751 751 754 754 756 757 753 752 751 749 752 757 760 764 773 770 752 749 754 756 756 748 759 783 779 765 759 753 750 751 755 760 760 761 767 769 770 772 774 778 779
788 787 786 786 785 783 782 781 780 779 778 777 776 776 776 776 777 777 778 779 779 781 780 781 781 781 783 772 757 755 755 755 756 755 756 757 756 757 756 756 757 756 756 755 754 753 753 752 754 759 757 753 754 758 761 760 755 756 767 773 769 773 769 753 748 751 756 755 748 761 781 776 765 760 751 748 749 752 758 760 760 766 768 769 771 772 776 778
788 787 786 786 784 783 782 781 780 779 778 777 776 776 776 776 776 777 778 778 779 780 780 781 780 781 783 771 757 754 755 754 753 754 755 755 755 755 754 755 755 754 755 754 753 753 752 753 755 757 758 757 760 765 766 770 768 761 769 778 773 772 770 759 750 744 749 755 753 760 774 773 765 757 748 745 748 751 757 759 760 765 768 768 770 771 774 777
788 787 786 785 784 783 782 781 781 779 778 778 777 776 776 776 776 777 777 778 780 779 780 780 779 782 777 763 758 756 753 752 752 752 753 753 754 753 753 753 753 753 753 752 753 752 752 754 757 758 759 761 763 767 775 785 783 772 770 774 771 769 769 765 755 745 746 755 758 760 766 766 761 755 750 748 749 752 757 760 759 763 767 767 768 771 772 775
788 787 786 785 784 783 782 781 780 780 780 779 778 777 777 776 776 777 777 778 779 780 781 779 781 786 775 760 757 753 748 750 750 751 752 752 753 752 752 752 751 752 754 755 754 754 756 756 758 763 764 764 764 770 783 787 781 779 776 776 774 767 765 763 757 748 748 755 759 762 766 763 759 756 753 751 751 754 757 758 759 760 765 766 766 769 771 773
787 786 786 785 784 783 782 781 780 780 780 779 779 778 777 776 776 777 777 779 779 779 779 775 776 777 767 754 751 747 746 749 750 751 751 751 752 752 752 751 751 753 758 762 760 756 758 761 764 772 773 770 766 768 776 775 771 774 773 774 776 771 765 759 752 746 746 755 759 763 767 764 760 759 756 752 751 754 755 756 758 760 763 765 765 768 769 771
787 786 785 784 784 783 782 781 780 779 779 779 778 777 777 776 777 778 777 777 776 770 767 766 765 763 756 750 747 747 748 749 750 750 750 751 752 753 753 753 754 756 760 764 764 757 758 768 774 774 772 768 765 763 765 765 765 768 770 771 772 773 770 758 751 747 745 756 762 759 763 761 759 759 758 756 754 755 756 756 757 759 761 762 763 765 767 769
786 786 784 784 783 783 782 781 779 778 778 778 778 779 777 774 778 780 775 772 768 763 762 759 758 758 753 748 746 746 748 750 750 749 749 749 750 755 757 756 760 764 762 761 762 757 759 773 775 767 764 763 762 760 761 763 765 767 770 772 772 773 771 760 754 752 748 757 763 759 761 762 758 758 756 756 758 758 757 756 757 757 759 760 760 762 763 765
785 785 784 784 783 782 782 781 779 778 777 777 777 778 775 772 774 773 771 772 765 758 759 755 754 755 748 745 745 745 749 753 754 750 748 748 750 757 758 757 764 766 761 759 764 766 768 773 767 759 758 759 759 758 760 764 766 769 770 773 777 772 768 764 760 758 755 761 768 766 768 767 760 757 755 754 757 758 755 754 754 754 756 758 758 759 760 762
785 783 783 783 781 781 780 780 780 778 776 776 776 775 773 771 770 769 770 774 768 756 753 753 753 751 747 746 744 745 751 754 755 751 746 748 752 755 758 760 763 764 762 763 768 774 777 769 758 755 756 757 760 759 761 765 767 770 771 775 779 772 771 775 769 763 760 764 769 770 772 771 764 760 757 754 754 755 754 752 751 751 753 754 755 757 758 760
784 783 783 781 781 781 779 779 778 777 775 775 775 773 771 770 769 770 770 773 770 756 747 746 746 746 746 744 742 746 751 750 750 749 745 748 752 752 756 759 761 763 762 760 763 770 771 760 750 753 755 757 762 762 762 768 772 771 770 774 777 772 772 775 770 765 764 766 766 770 779 777 767 765 761 754 752 752 752 752 752 751 750 751 752 755 757 758
783 782 782 780 780 779 779 778 776 776 776 775 775 771 771 770 768 769 771 775 775 758 746 743 743 745 743 742 744 745 748 748 745 745 743 745 749 752 754 753 756 764 760 756 760 765 761 751 747 753 756 756 762 765 763 768 775 775 770 767 769 768 768 769 768 769 776 780 769 771 791 788 768 766 764 755 753 752 750 751 752 751 750 751 752 753 755 756
782 782 780 780 780 779 779 777 775 775 774 774 773 771 771 769 768 769 772 785 785 764 752 750 747 748 744 744 744 743 753 753 741 740 742 743 744 747 755 754 753 758 755 752 756 758 754 748 747 752 756 757 761 765 762 763 776 782 770 760 762 764 766 768 769 774 785 787 771 769 791 792 774 765 760 755 754 752 749 750 750 751 751 750 751 751 752 754
782 781 780 780 779 779 778 776 776 774 773 773 771 771 771 768 769 768 774 796 791 762 754 754 749 748 745 744 741 748 765 757 741 741 740 743 743 744 756 759 757 756 749 753 763 759 753 752 752 753 756 761 765 767 760 759 775 780 764 757 760 763 767 769 769 775 779 778 773 770 779 789 783 767 755 753 755 753 750 749 748 748 750 749 749 750 750 751
781 780 780 780 779 779 778 777 777 774 774 774 771 772 771 768 770 768 783 806 788 755 752 752 746 744 742 742 742 749 757 750 750 750 738 741 745 746 757 759 758 758 749 758 772 761 751 755 756 756 760 764 763 761 756 756 769 769 757 756 758 760 765 766 769 775 773 778 787 779 774 790 789 767 753 753 756 756 751 747 745 744 746 747 748 749 748 748
781 780 780 780 779 779 778 778 777 775 775 773 771 772 769 770 771 772 793 805 777 752 751 749 747 746 743 745 746 747 747 746 753 750 739 743 745 746 757 755 755 758 752 756 766 758 749 750 750 753 760 762 757 753 751 756 763 759 754 756 757 758 762 765 770 774 776 787 795 784 777 791 791 770 760 760 758 755 749 744 743 741 742 743 744 746 746 746
780 780 780 780 779 779 779 778 776 776 775 772 772 771 768 771 774 788 807 796 768 755 749 747 750 748 746 751 751 748 747 746 746 744 743 746 745 746 750 749 751 757 755 754 757 753 746 742 743 748 753 753 751 750 750 752 755 754 755 759 762 764 764 767 769 772 786 797 793 782 775 785 791 775 761 759 752 746 743 741 741 740 739 740 739 741 743 745
780 780 780 779 780 779 779 778 776 776 774 773 772 768 771 775 780 802 806 775 761 760 750 749 750 744 748 754 753 749 747 746 741 744 749 748 750 752 752 755 757 761 764 761 758 753 747 747 747 744 744 746 749 752 750 748 748 752 758 764 773 777 774 778 778 780 799 804 787 776 770 779 793 778 756 749 742 737 738 738 739 740 739 737 736 737 739 741
781 780 780 779 779 779 778 777 776 775 774 773 772 769 777 786 791 800 786 760 765 768 753 753 751 745 748 749 750 748 746 745 741 743 750 751 755 755 756 762 764 770 777 771 765 760 754 752 747 743 741 742 751 758 756 752 750 755 761 769 785 794 794 797 796 794 802 797 779 771 772 779 785 770 752 745 738 734 734 733 735 737 738 737 736 735 735 738
781 780 779 779 778 778 777 777 776 776 774 772 773 773 782 799 799 787 771 762 769 763 750 752 749 745 749 751 752 747 744 745 742 743 746 747 754 756 754 754 754 765 773 770 769 768 763 755 746 747 746 741 749 760 766 762 757 760 764 773 789 801 808 811 803 797 798 790 775 767 774 782 776 759 747 742 737 733 731 730 730 730 732 734 734 734 735 736
780 779 780 778 778 777 776 776 775 775 774 772 775 779 790 802 792 773 768 765 760 753 750 753 752 749 751 753 752 746 746 748 741 743 747 746 755 759 755 751 748 754 761 765 769 768 774 772 755 750 749 745 746 752 758 758 758 759 757 764 780 787 797 804 798 796 796 790 780 773 778 783 775 758 743 738 735 731 731 730 729 728 728 729 731 732 734 734
780 780 779 777 777 776 774 775 775 774 775 774 778 787 795 798 782 770 773 767 758 758 756 754 755 759 758 754 747 741 745 749 742 744 751 751 756 757 755 752 746 748 757 768 768 763 772 773 751 742 742 742 746 744 743 751 760 758 751 761 774 771 775 785 785 785 789 793 788 782 779 773 764 752 739 736 736 731 732 731 730 731 729 728 731 732 734 735
781 779 778 777 776 775 774 775 775 774 775 776 786 793 791 783 772 767 769 765 763 765 765 763 761 765 767 759 751 745 744 746 746 750 753 752 753 751 749 747 742 741 749 761 766 765 773 770 750 743 743 739 741 740 737 748 760 761 760 765 762 753 759 776 783 778 784 796 791 781 779 770 762 756 742 739 740 735 735 734 733 734 732 732 733 731 733 734
781 780 778 776 775 776 775 775 774 774 774 780 792 792 780 771 764 761 762 762 764 764 769 777 770 767 771 767 760 754 749 749 749 753 757 755 753 750 746 744 739 738 742 750 759 762 770 773 756 749 752 742 734 736 736 738 747 759 766 760 749 749 756 769 785 787 792 802 792 779 782 778 775 770 750 742 746 743 740 738 737 735 734 736 735 731 731 731
780 780 779 775 775 775 774 774 774 774 776 783 791 786 774 768 760 756 759 762 765 766 774 781 772 765 771 773 767 758 755 759 756 756 759 757 756 753 749 748 742 739 740 746 757 758 763 776 766 752 755 748 735 741 747 740 738 748 754 749 752 767 770 769 782 791 798 804 794 782 781 777 776 771 757 752 753 751 748 745 743 739 738 741 739 735 734 733
781 781 780 775 775 774 773 774 772 773 780 787 790 782 768 762 757 756 759 761 765 771 776 778 772 768 771 772 770 763 760 763 762 761 763 760 758 753 748 749 747 743 741 745 756 758 760 776 777 758 753 754 747 752 761 755 744 742 746 748 751 763 770 772 778 783 790 798 794 788 785 776 767 760 757 758 756 754 754 752 749 746 744 745 743 740 739 740
781 783 781 774 774 774 772 773 773 777 785 785 783 775 764 761 760 757 758 760 765 770 774 774 772 773 772 770 771 768 764 764 763 763 764 759 758 755 749 749 750 747 744 744 754 760 761 773 782 770 760 765 765 760 760 761 757 755 759 761 758 759 764 770 776 777 784 796 799 798 794 779 762 754 756 759 755 753 754 753 752 750 748 749 748 746 745 744
782 785 781 772 773 773 771 774 777 779 782 779 773 769 765 764 763 759 758 759 762 764 765 768 770 771 772 772 772 769 767 767 765 764 764 758 758 761 756 750 751 752 751 753 761 769 771 775 782 780 775 776 773 760 753 757 760 763 767 766 763 762 766 777 785 779 780 792 795 798 798 780 760 754 755 757 756 752 750 750 751 752 751 752 752 752 750 748
785 786 779 772 773 772 772 778 778 775 777 775 770 767 764 764 763 763 761 760 761 760 759 763 767 769 770 771 770 769 768 770 768 766 766 761 759 762 757 750 751 753 756 764 770 771 772 776 782 783 779 775 768 758 754 755 754 757 762 761 760 762 767 781 790 782 781 787 786 792 797 776 753 750 753 754 753 751 749 750 752 754 754 754 754 753 752 750
787 785 777 772 773 771 775 782 779 776 777 773 769 766 764 765 766 765 764 763 764 763 764 766 768 770 771 769 770 770 770 771 769 767 767 764 760 757 753 751 752 754 759 768 772 770 770 776 783 785 779 771 763 757 754 753 754 759 762 760 761 763 764 771 775 775 781 785 783 794 799 775 753 749 750 751 751 750 752 753 754 756 755 754 754 753 753 752
788 784 776 774 774 772 779 785 783 782 779 774 774 774 770 769 769 768 766 765 765 767 771 771 769 770 770 768 770 771 771 774 772 767 766 767 762 755 751 752 753 756 761 767 769 771 774 778 784 791 791 785 778 771 765 762 764 768 767 764 763 764 765 767 767 771 781 781 779 790 793 774 756 750 749 751 752 753 756 756 756 757 756 756 755 755 755 754
789 784 778 775 773 774 780 781 781 783 781 780 783 781 778 774 770 768 767 765 765 768 772 773 769 768 768 769 771 771 769 773 774 769 767 767 762 754 752 753 753 756 759 760 761 767 775 779 783 792 799 799 795 786 778 776 775 772 769 767 766 765 767 770 773 779 786 780 776 783 783 769 758 755 755 754 754 756 757 756 756 757 757 757 756 755 755 754
790 790 787 782 777 777 780 779 779 784 785 787 789 784 782 781 773 767 766 766 766 766 770 772 770 770 772 773 777 776 772 772 774 772 771 771 765 757 754 754 756 758 759 758 759 765 775 779 781 786 791 793 792 784 777 778 779 777 774 770 767 766 766 769 777 783 783 779 779 778 774 769 764 759 760 759 758 759 759 758 758 757 757 757 756 755 754 753
792 795 797 795 789 785 784 782 783 786 786 789 790 785 782 782 777 772 770 769 768 767 769 771 771 775 778 778 780 780 776 774 774 774 774 772 768 763 759 759 761 761 759 759 760 766 776 781 779 781 782 781 781 779 775 777 778 777 774 769 767 767 768 772 778 778 776 782 784 774 768 771 766 758 760 763 762 762 761 760 760 759 759 759 758 757 756 754
797 798 798 800 799 795 793 791 788 789 788 787 788 786 784 783 781 779 775 770 768 769 772 775 774 775 777 778 781 781 778 778 778 778 778 778 776 774 769 765 765 765 764 764 763 766 776 779 775 777 779 776 775 774 773 774 774 772 771 768 766 768 770 773 774 772 773 780 781 771 770 774 766 757 760 763 762 762 762 761 760 759 759 759 760 761 760 758
803 803 800 800 802 801 799 795 791 790 789 787 787 785 784 784 783 780 775 772 773 774 777 781 780 775 775 777 780 783 785 787 788 787 786 785 784 783 780 774 768 765 766 768 766 766 773 776 772 773 775 773 772 772 771 771 771 769 766 765 766 768 769 770 771 770 771 774 772 769 771 771 766 761 759 759 760 761 760 760 759 758 759 760 761 761 760 759
811 812 808 805 805 802 798 795 792 791 788 786 787 784 781 782 782 778 774 775 781 780 779 783 783 778 777 779 781 786 789 789 792 790 788 789 787 785 784 780 773 769 769 771 769 767 772 775 771 770 775 775 772 771 769 769 770 768 765 765 768 768 767 768 769 768 769 770 768 769 771 767 762 760 758 755 756 757 758 759 759 759 760 760 760 760 759 758
816 815 813 812 809 803 799 796 793 793 791 787 786 782 780 781 781 780 779 777 780 782 780 784 786 783 782 782 782 785 786 786 788 787 785 787 787 786 785 781 778 777 775 773 772 770 772 775 772 773 780 779 772 770 769 768 769 769 768 769 769 768 768 768 766 765 767 768 767 770 773 767 759 757 757 755 754 756 759 760 761 761 761 760 760 759 758 757
817 814 812 814 812 804 801 799 794 794 793 788 785 781 780 782 781 783 786 782 778 780 782 786 789 788 788 788 786 784 784 783 783 782 781 781 781 782 783 780 779 779 778 777 777 774 775 779 779 780 783 780 774 771 771 774 779 776 769 765 765 764 765 765 764 763 762 764 767 770 769 764 758 757 759 759 759 760 761 761 762 762 761 761 760 759 757 756